Location: STAR School
(35.3054°N, 111.2976°W)
Time: 16:40:16
(UTC-07:00)

A-11 Canister half - Visible Passes

Search period start: 15 October 2019 00:00
Search period end: 25 October 2019 00:00
Orbit: 1527 x 1682 km, 47.3° (Epoch: 15 October)

Date Brightness Start Highest point End Pass type
(mag) Time Alt. Az. Time Alt. Az. Time Alt. Az.
15 Oct 9.6 02:42:46 47° ENE 02:42:46 47° ENE 02:49:50 10° E visible
15 Oct 9.0 04:41:07 33° WNW 04:45:46 62° SW 04:55:13 10° SE visible
15 Oct 9.0 19:51:51 10° SSW 20:00:48 49° SE 20:01:34 48° ESE visible
15 Oct 10.4 21:56:22 10° WSW 21:59:55 26° W 21:59:55 26° W visible
16 Oct 10.1 02:23:03 33° E 02:23:03 33° E 02:28:07 10° E visible
16 Oct 8.9 04:21:24 48° W 04:24:09 65° SW 04:33:38 10° SE visible
16 Oct 9.2 19:30:21 10° SSW 19:39:13 46° SE 19:41:48 38° E visible
16 Oct 9.9 21:34:40 10° WSW 21:40:09 39° W 21:40:09 39° W visible
17 Oct 10.6 02:03:23 22° E 02:03:23 22° E 02:06:22 10° E visible
17 Oct 8.8 04:01:45 66° WSW 04:02:33 68° SW 04:12:03 10° SE visible
17 Oct 10.3 06:00:53 10° W 06:06:22 17° SW 06:11:57 10° SSW visible
17 Oct 9.3 19:08:50 10° SSW 19:17:38 44° SE 19:21:56 28° E visible
17 Oct 9.4 21:12:59 10° WSW 21:20:17 55° W 21:20:17 55° W visible
18 Oct 11.0 01:43:47 13° E 01:43:47 13° E 01:44:38 10° E visible
18 Oct 9.0 03:42:10 65° S 03:42:10 65° S 03:50:27 10° SE visible
18 Oct 10.2 05:40:32 13° W 05:44:49 18° SW 05:50:48 10° SSW visible
18 Oct 9.4 18:47:21 10° SSW 18:56:03 41° SE 19:01:59 20° ENE visible
18 Oct 9.0 20:51:17 10° WSW 21:00:20 69° NW 21:00:20 69° NW visible
18 Oct 11.2 22:58:22 10° WNW 22:58:40 11° WNW 22:58:40 11° WNW visible
19 Oct 9.5 03:22:36 46° SSE 03:22:36 46° SSE 03:28:50 10° SE visible
19 Oct 10.0 05:20:58 18° WSW 05:23:15 20° SW 05:29:35 10° SSW visible
19 Oct 9.5 18:25:54 10° SSW 18:34:29 39° SE 18:41:57 13° ENE visible
19 Oct 9.0 20:29:36 10° WSW 20:39:03 73° NNW 20:40:16 66° NNE visible
19 Oct 10.9 22:36:37 10° WNW 22:38:37 17° WNW 22:38:37 17° WNW visible
20 Oct 10.1 03:03:02 30° SE 03:03:02 30° SE 03:07:14 10° SE visible
20 Oct 10.0 05:01:24 21° WSW 05:01:41 21° SW 05:08:20 10° S visible
20 Oct 9.6 18:04:26 10° SSW 18:12:54 37° SE 18:21:11 10° ENE visible
20 Oct 9.0 20:07:55 10° WSW 20:17:25 75° NNW 20:20:09 51° NE visible
20 Oct 10.6 22:14:53 10° WNW 22:18:28 24° WNW 22:18:28 24° WNW visible
21 Oct 10.6 02:43:28 19° SE 02:43:28 19° SE 02:45:37 10° SE visible
21 Oct 10.1 04:41:50 22° SW 04:41:50 22° SW 04:47:04 10° S visible
21 Oct 9.0 19:46:14 10° WSW 19:55:47 78° NNW 19:59:57 39° NE visible
21 Oct 10.2 21:53:08 10° W 21:58:16 31° NW 21:58:16 31° NW visible
22 Oct 11.1 02:23:52 10° SE 02:23:52 10° SE 02:23:59 10° SE visible
22 Oct 10.3 04:22:14 19° SSW 04:22:14 19° SSW 04:25:45 10° S visible
22 Oct 9.0 19:24:34 10° WSW 19:34:08 81° NW 19:39:41 29° NE visible
22 Oct 9.9 21:31:24 10° W 21:37:59 37° NW 21:37:59 37° NW visible
23 Oct 10.6 04:02:35 15° S 04:02:35 15° S 04:04:25 10° S visible
23 Oct 9.0 19:02:55 10° SW 19:12:31 84° NW 19:19:21 21° NE visible
23 Oct 9.7 21:09:39 10° W 21:17:39 42° NNW 21:17:39 42° NNW visible
24 Oct 10.9 03:42:53 11° S 03:42:53 11° S 03:43:04 10° S visible
24 Oct 9.0 18:41:15 10° SW 18:50:53 88° NNW 18:58:58 15° NE visible
24 Oct 9.6 20:47:54 10° W 20:56:47 44° NNW 20:57:16 44° N visible
24 Oct 11.1 22:54:54 10° WNW 22:55:34 12° NW 22:55:34 12° NW visible
